Zurück zum Katalog

THOR ABLESTAR DEB

AktivLEO
NORAD 245·DEBRIS·🇺🇸 United States

Gestartet Jun 29, 1961 von Cape Canaveral Space Force Station

Loading…

Nächste Überflüge (nächste 24 Stunden)

TLE

AktuellSource: Space-Track

Epoche: Sep 7, 2026, 04:03 UTC

1 00245U 61015CA  26250.16901481  .00000020  00000-0  51874-4 0  9990
2 00245  66.1040 316.0574 0046191 162.1404 198.1319 14.18284786339506

Verfolge THOR ABLESTAR DEB in Echtzeit mit AllMySat

Download on the App Store